Location: B�rgermoos
(47.6500°N, 9.0667°E)
Time: 05:47:13
(UTC+00:00)

A-11 Canister half - All Passes

Search period start: 31 July 2021 00:00
Search period end: 10 August 2021 00:00
Orbit: 1513 x 1687 km, 47.2° (Epoch: 30 July)

Date Brightness Start Highest point End Pass type
(mag) Time Alt. Az. Time Alt. Az. Time Alt. Az.
31 Jul - 15:12:26 10° SSW 15:20:31 31° SE 15:28:50 10° ENE daylight
31 Jul - 17:14:37 10° SW 17:24:21 69° SSE 17:34:24 10° ENE daylight
31 Jul - 19:19:18 10° W 19:29:21 89° S 19:39:37 10° E visible
31 Jul - 21:24:22 10° WNW 21:34:24 69° SSW 21:44:28 10° SE visible
31 Jul - 23:29:49 10° WNW 23:38:19 32° SW 23:46:47 10° SSE visible
01 Aug - 14:49:49 10° S 14:57:41 29° SE 15:05:46 10° ENE daylight
01 Aug - 16:51:44 10° SW 17:01:25 67° SSE 17:11:25 10° ENE daylight
01 Aug - 18:56:22 10° W 19:06:23 88° S 19:16:38 10° E daylight
01 Aug - 21:01:26 10° WNW 21:11:27 71° SSW 21:21:33 10° ESE visible
01 Aug - 23:06:47 10° WNW 23:15:27 34° SW 23:24:06 10° SSE visible
02 Aug - 14:27:13 10° S 14:34:51 27° SE 14:42:42 10° E daylight
02 Aug - 16:28:53 10° SW 16:38:30 65° SSE 16:48:26 10° ENE daylight
02 Aug - 18:33:25 10° W 18:43:25 88° S 18:53:39 10° E daylight
02 Aug - 20:38:29 10° WNW 20:48:30 73° SSW 20:58:38 10° ESE visible
02 Aug - 22:43:46 10° WNW 22:52:35 35° SW 23:01:24 10° SSE visible
03 Aug - 14:04:38 10° S 14:12:02 26° SE 14:19:37 10° E daylight
03 Aug - 16:06:03 10° SW 16:15:35 63° SSE 16:25:28 10° ENE daylight
03 Aug - 18:10:29 10° W 18:20:27 88° S 18:30:41 10° E daylight
03 Aug - 20:15:32 10° WNW 20:25:34 75° SSW 20:35:43 10° ESE visible
03 Aug - 22:20:46 10° WNW 22:29:43 37° SW 22:38:41 10° SSE visible
04 Aug - 13:42:05 10° S 13:49:13 24° SE 13:56:30 10° E daylight
04 Aug - 15:43:13 10° SW 15:52:41 60° SSE 16:02:30 10° ENE daylight
04 Aug - 17:47:33 10° W 17:57:29 88° S 18:07:42 10° E daylight
04 Aug - 19:52:35 10° WNW 20:02:37 76° SSW 20:12:47 10° ESE visible
04 Aug - 21:57:46 10° WNW 22:06:51 39° SW 22:15:56 10° SSE visible
05 Aug - 00:08:00 10° WSW 00:09:35 10° WSW 00:11:10 10° SW visible
05 Aug - 13:19:34 10° S 13:26:24 22° SE 13:33:23 10° E daylight
05 Aug - 15:20:23 10° SW 15:29:46 58° SSE 15:39:31 10° ENE daylight
05 Aug - 17:24:37 10° W 17:34:31 87° S 17:44:43 10° E daylight
05 Aug - 19:29:39 10° W 19:39:40 78° SSW 19:49:51 10° ESE visible
05 Aug - 21:34:47 10° WNW 21:43:58 41° SW 21:53:11 10° SSE visible
05 Aug - 23:43:43 10° WSW 23:46:48 12° WSW 23:49:52 10° SW visible
06 Aug - 12:57:06 10° S 13:03:36 21° SE 13:10:13 10° E daylight
06 Aug - 14:57:34 10° SW 15:06:53 56° SSE 15:16:32 10° ENE daylight
06 Aug - 17:01:42 10° W 17:11:33 86° S 17:21:44 10° E daylight
06 Aug - 19:06:43 10° W 19:16:42 79° SSW 19:26:54 10° ESE visible
06 Aug - 21:11:49 10° WNW 21:21:04 43° SW 21:30:25 10° SSE visible
06 Aug - 23:20:01 10° W 23:24:00 13° WSW 23:28:00 10° SW visible
07 Aug - 12:34:40 10° SSE 12:40:48 19° SE 12:47:02 10° E daylight
07 Aug - 14:34:46 10° SW 14:43:59 54° SSE 14:53:33 10° ENE daylight
07 Aug - 16:38:47 10° WSW 16:48:36 86° S 16:58:45 10° E daylight
07 Aug - 18:43:46 10° W 18:53:45 81° SSW 19:03:57 10° ESE daylight
07 Aug - 20:48:51 10° WNW 20:58:11 45° SW 21:07:38 10° SSE visible
07 Aug - 22:56:30 10° W 23:01:12 14° WSW 23:05:54 10° SSW visible
08 Aug - 12:12:17 10° SSE 12:18:00 18° SE 12:23:49 10° E daylight
08 Aug - 14:11:59 10° SW 14:21:06 51° SE 14:30:34 10° ENE daylight
08 Aug - 16:15:52 10° WSW 16:25:39 85° SSE 16:35:47 10° E daylight
08 Aug - 18:20:51 10° W 18:30:48 82° SSW 18:41:00 10° ESE daylight
08 Aug - 20:25:53 10° WNW 20:35:17 47° SW 20:44:49 10° SSE visible
08 Aug - 22:33:07 10° W 22:38:23 16° SW 22:43:40 10° SSW visible
09 Aug - 11:49:58 10° SSE 11:55:13 16° SE 12:00:32 10° E daylight
09 Aug - 13:49:12 10° SW 13:58:13 49° SE 14:07:36 10° ENE daylight
09 Aug - 15:52:57 10° WSW 16:02:42 84° SSE 16:12:48 10° E daylight
09 Aug - 17:57:55 10° W 18:07:50 83° SSW 18:18:02 10° ESE daylight
09 Aug - 20:02:55 10° WNW 20:12:24 49° SW 20:22:00 10° SE visible
09 Aug - 22:09:49 10° W 22:15:35 17° SW 22:21:22 10° SSW visible
